VLG6601 LICJ-LEMD

Flight info

Callsign VLG6601
Flight time 1h 30m
Altitude 30000
Route KAPIL DCT ADAMI DCT DOPEL DCT LUXUR DCT GENIO DCT XARON DCT OLMIR DCT NINES/N0459F310 M134 VLC/N0360F130 N733 PRADO
Aircraft A320/M-SDE3FGHIRWY/LB1

Departure

Time 2026-05-07 09:50
Airport Falcone–Borsellino Airport (LICJ)

Arrival

Time 2026-05-07 11:21
Airport Adolfo Suárez Madrid–Barajas Airport (LEMD)
Time Latitude Longitude Altitude Speed Heading
2026-05-07 09:27 38.18611 13.10735 65 ft 0 kts 301°
2026-05-07 09:41 38.18608 13.10741 64 ft 4 kts 301°
2026-05-07 09:42 38.18594 13.10770 57 ft 4 kts 304°
2026-05-07 09:42 38.18582 13.10791 58 ft 4 kts 331°
2026-05-07 09:42 38.18566 13.10792 62 ft 2 kts 26°
2026-05-07 09:42 38.18545 13.10784 58 ft 4 kts 340°
2026-05-07 09:43 38.18522 13.10800 57 ft 3 kts 336°
2026-05-07 09:43 38.18515 13.10804 62 ft 0 kts 338°
2026-05-07 09:45 38.18519 13.10800 63 ft 2 kts 324°
2026-05-07 09:45 38.18518 13.10758 61 ft 8 kts 255°
2026-05-07 09:45 38.18495 13.10685 63 ft 10 kts 247°
2026-05-07 09:46 38.18463 13.10592 60 ft 13 kts 246°
2026-05-07 09:46 38.18424 13.10477 59 ft 15 kts 247°
2026-05-07 09:46 38.18381 13.10350 63 ft 16 kts 247°
2026-05-07 09:46 38.18331 13.10219 61 ft 17 kts 230°
2026-05-07 09:47 38.18234 13.10142 63 ft 17 kts 183°
2026-05-07 09:47 38.18131 13.10110 58 ft 16 kts 234°
2026-05-07 09:47 38.18078 13.09967 61 ft 18 kts 244°
2026-05-07 09:47 38.18026 13.09811 59 ft 20 kts 248°
2026-05-07 09:48 38.17964 13.09631 64 ft 24 kts 245°
2026-05-07 09:48 38.17900 13.09436 62 ft 22 kts 247°
2026-05-07 09:48 38.17842 13.09266 66 ft 20 kts 246°
2026-05-07 09:48 38.17787 13.09091 60 ft 24 kts 248°
2026-05-07 09:49 38.17717 13.08928 61 ft 18 kts 223°
2026-05-07 09:49 38.17620 13.08840 64 ft 18 kts 217°
2026-05-07 09:49 38.17519 13.08779 66 ft 15 kts 167°
2026-05-07 09:49 38.17513 13.08896 64 ft 20 kts 64°
2026-05-07 09:50 38.17642 13.09273 72 ft 77 kts 68°
2026-05-07 09:50 38.17920 13.10113 62 ft 126 kts 67°
2026-05-07 09:50 38.18312 13.11294 105 ft 161 kts 68°
2026-05-07 09:50 38.18744 13.12567 689 ft 158 kts 69°
2026-05-07 09:51 38.19183 13.13872 1247 ft 161 kts 67°
2026-05-07 09:51 38.19656 13.15245 1496 ft 179 kts 68°
2026-05-07 09:51 38.20161 13.16760 1743 ft 198 kts 69°
2026-05-07 09:51 38.20746 13.18483 1968 ft 222 kts 64°
2026-05-07 09:52 38.21819 13.20040 2278 ft 250 kts 33°
2026-05-07 09:52 38.23438 13.20970 2832 ft 264 kts 24°
2026-05-07 09:52 38.25151 13.21857 3672 ft 267 kts 24°
2026-05-07 09:52 38.26878 13.22761 4551 ft 269 kts 24°
2026-05-07 09:53 38.28621 13.23680 5362 ft 273 kts 25°
2026-05-07 09:53 38.30382 13.24612 6194 ft 276 kts 25°
2026-05-07 09:53 38.32168 13.25561 6922 ft 280 kts 25°
2026-05-07 09:53 38.33982 13.26527 7626 ft 285 kts 25°
2026-05-07 09:54 38.35834 13.27512 8324 ft 291 kts 24°
2026-05-07 09:54 38.37825 13.28076 9018 ft 299 kts
2026-05-07 09:54 38.39876 13.27530 9684 ft 307 kts 334°
2026-05-07 09:54 38.41566 13.25918 10171 ft 316 kts 308°
2026-05-07 09:55 38.42589 13.23399 10332 ft 331 kts 281°
2026-05-07 09:55 38.43037 13.20439 10636 ft 345 kts 277°
2026-05-07 09:55 38.43461 13.17410 11243 ft 348 kts 277°
2026-05-07 09:55 38.43891 13.14361 11928 ft 350 kts 278°
2026-05-07 09:56 38.44330 13.11304 12602 ft 351 kts 278°
2026-05-07 09:56 38.44758 13.08236 13283 ft 351 kts 275°
2026-05-07 09:56 38.44833 13.05133 13913 ft 350 kts 263°
2026-05-07 09:56 38.44553 13.02046 14512 ft 350 kts 261°
2026-05-07 09:57 38.44253 12.98965 15112 ft 350 kts 261°
2026-05-07 09:57 38.43954 12.95880 15706 ft 351 kts 261°
2026-05-07 09:57 38.43654 12.92789 16299 ft 351 kts 261°
2026-05-07 09:57 38.43353 12.89692 16884 ft 352 kts 262°
2026-05-07 09:58 38.43049 12.86590 17472 ft 353 kts 262°
2026-05-07 09:58 38.42746 12.83479 18064 ft 354 kts 262°
2026-05-07 09:58 38.42441 12.80360 18597 ft 355 kts 262°
2026-05-07 09:58 38.42135 12.77231 19091 ft 356 kts 262°
2026-05-07 09:59 38.41828 12.74098 19660 ft 356 kts 262°
2026-05-07 09:59 38.41522 12.70964 20192 ft 357 kts 262°
2026-05-07 09:59 38.41318 12.68882 20525 ft 357 kts 261°
2026-05-07 09:59 38.41008 12.65732 21011 ft 359 kts 261°
2026-05-07 10:00 38.40695 12.62572 21490 ft 360 kts 261°
2026-05-07 10:00 38.40378 12.59402 21966 ft 361 kts 261°
2026-05-07 10:00 38.40059 12.56221 22419 ft 362 kts 261°
2026-05-07 10:00 38.39738 12.53029 22877 ft 364 kts 261°
2026-05-07 10:01 38.39416 12.49826 23324 ft 365 kts 261°
2026-05-07 10:01 38.39092 12.46608 23724 ft 367 kts 261°
2026-05-07 10:01 38.38767 12.43385 24129 ft 367 kts 261°
2026-05-07 10:01 38.38443 12.40163 24569 ft 366 kts 261°
2026-05-07 10:02 38.38122 12.36954 25045 ft 364 kts 261°
2026-05-07 10:02 38.37797 12.33761 25486 ft 363 kts 261°
2026-05-07 10:02 38.37471 12.30577 25922 ft 362 kts 262°
2026-05-07 10:02 38.37145 12.27392 26334 ft 361 kts 262°
2026-05-07 10:03 38.36818 12.24218 26738 ft 361 kts 262°
2026-05-07 10:03 38.36489 12.21047 27141 ft 361 kts 262°
2026-05-07 10:03 38.36159 12.17878 27566 ft 361 kts 262°
2026-05-07 10:03 38.35911 12.14701 27966 ft 361 kts 268°
2026-05-07 10:04 38.36131 12.11504 28363 ft 364 kts 278°
2026-05-07 10:04 38.36867 12.08390 28755 ft 369 kts 286°
2026-05-07 10:04 38.37796 12.05351 29183 ft 368 kts 286°
2026-05-07 10:04 38.38718 12.02328 29772 ft 364 kts 286°
2026-05-07 10:05 38.39631 11.99323 29932 ft 360 kts 285°
2026-05-07 10:05 38.41389 11.93495 29958 ft 348 kts 285°
2026-05-07 10:06 38.43101 11.87779 29964 ft 347 kts 285°
2026-05-07 10:06 38.44813 11.82029 29964 ft 347 kts 285°
2026-05-07 10:07 38.46527 11.76282 29961 ft 346 kts 285°
2026-05-07 10:07 38.48242 11.70535 29967 ft 346 kts 285°
2026-05-07 10:08 38.49955 11.64784 29975 ft 347 kts 285°
2026-05-07 10:08 38.51671 11.59024 29969 ft 347 kts 285°
2026-05-07 10:09 38.53386 11.53246 29968 ft 348 kts 285°
2026-05-07 10:09 38.55095 11.47464 29968 ft 348 kts 285°
2026-05-07 10:10 38.56947 11.41723 30001 ft 353 kts 291°
2026-05-07 10:10 38.58781 11.35947 29986 ft 350 kts 284°
2026-05-07 10:11 38.60332 11.30002 30001 ft 350 kts 284°
2026-05-07 10:11 38.61950 11.24107 29996 ft 351 kts 285°
2026-05-07 10:12 38.63648 11.18253 29982 ft 352 kts 285°
2026-05-07 10:12 38.65381 11.12391 29981 ft 352 kts 285°
2026-05-07 10:13 38.67086 11.06553 29981 ft 352 kts 285°
2026-05-07 10:13 38.68792 11.00670 29977 ft 352 kts 285°
2026-05-07 10:14 38.70178 10.94707 29990 ft 346 kts 274°
2026-05-07 10:14 38.69987 10.88588 29982 ft 344 kts 264°
2026-05-07 10:15 38.69515 10.82506 29981 ft 345 kts 264°
2026-05-07 10:15 38.69043 10.76378 29989 ft 345 kts 264°
2026-05-07 10:16 38.68563 10.70271 29991 ft 344 kts 264°
2026-05-07 10:16 38.68080 10.64204 29990 ft 345 kts 264°
2026-05-07 10:17 38.67590 10.58058 29991 ft 344 kts 264°
2026-05-07 10:17 38.67091 10.51873 30002 ft 344 kts 264°
2026-05-07 10:18 38.66593 10.45778 29992 ft 344 kts 264°
2026-05-07 10:18 38.66103 10.39681 29987 ft 344 kts 264°
2026-05-07 10:19 38.65603 10.33588 29976 ft 344 kts 263°
2026-05-07 10:19 38.65102 10.27539 29987 ft 343 kts 263°
2026-05-07 10:20 38.64600 10.21452 29991 ft 343 kts 263°
2026-05-07 10:20 38.64088 10.15339 30011 ft 343 kts 263°
2026-05-07 10:21 38.63577 10.09269 30002 ft 344 kts 263°
2026-05-07 10:21 38.63065 10.03217 29998 ft 344 kts 263°
2026-05-07 10:22 38.62545 9.97115 29994 ft 344 kts 263°
2026-05-07 10:22 38.62024 9.91032 29996 ft 344 kts 263°
2026-05-07 10:23 38.61498 9.84937 29992 ft 344 kts 263°
2026-05-07 10:23 38.60972 9.78885 30006 ft 344 kts 263°
2026-05-07 10:23 38.60939 9.75827 29999 ft 347 kts 275°
2026-05-07 10:24 38.61325 9.72785 29993 ft 348 kts 276°
2026-05-07 10:24 38.62130 9.66660 29994 ft 348 kts 276°
2026-05-07 10:25 38.62939 9.60502 29989 ft 348 kts 276°
2026-05-07 10:25 38.63731 9.54401 29987 ft 348 kts 275°
2026-05-07 10:26 38.66490 9.32704 29964 ft 350 kts 275°
2026-05-07 10:26 38.69606 9.07966 30001 ft 354 kts 275°
2026-05-07 10:27 38.72712 8.82816 29974 ft 360 kts 275°
2026-05-07 10:27 38.75812 8.57320 29964 ft 365 kts 274°
2026-05-07 10:28 38.78898 8.31380 29985 ft 370 kts 274°
2026-05-07 10:28 38.81442 8.09610 29975 ft 373 kts 274°
2026-05-07 10:29 38.84947 7.78899 29964 ft 376 kts 273°
2026-05-07 10:29 38.87460 7.56557 29983 ft 379 kts 272°
2026-05-07 10:30 38.91868 7.16263 29998 ft 382 kts 272°
2026-05-07 10:30 38.94750 6.89213 30007 ft 382 kts 272°
2026-05-07 10:31 38.97604 6.61773 29985 ft 382 kts 271°
2026-05-07 10:31 39.00377 6.34454 30001 ft 383 kts 271°
2026-05-07 10:32 39.03087 6.07277 30012 ft 382 kts 271°
2026-05-07 10:32 39.05706 5.80081 29996 ft 379 kts 270°
2026-05-07 10:33 39.08258 5.53058 30006 ft 379 kts 270°
2026-05-07 10:33 39.10732 5.26167 30004 ft 378 kts 270°
2026-05-07 10:34 39.13170 4.99041 29987 ft 379 kts 270°
2026-05-07 10:34 39.15531 4.72042 30000 ft 379 kts 270°
2026-05-07 10:35 39.17830 4.45040 29996 ft 379 kts 269°
2026-05-07 10:35 39.20065 4.17943 30013 ft 381 kts 269°
2026-05-07 10:36 39.22258 3.90620 29987 ft 381 kts 269°
2026-05-07 10:36 39.24376 3.63397 29996 ft 381 kts 269°
2026-05-07 10:37 39.26442 3.35964 29996 ft 381 kts 269°
2026-05-07 10:37 39.28439 3.08748 29997 ft 381 kts 269°
2026-05-07 10:38 39.30346 2.81572 29988 ft 379 kts 268°
2026-05-07 10:38 39.32199 2.54473 29996 ft 377 kts 267°
2026-05-07 10:39 39.33976 2.27539 30016 ft 375 kts 267°
2026-05-07 10:39 39.35699 2.00445 29982 ft 376 kts 267°
2026-05-07 10:40 39.37355 1.73485 30001 ft 376 kts 266°
2026-05-07 10:40 39.38955 1.46377 29997 ft 375 kts 266°
2026-05-07 10:41 39.40484 1.19437 29992 ft 376 kts 266°
2026-05-07 10:41 39.41934 0.92461 30004 ft 376 kts 265°
2026-05-07 10:42 39.43357 0.65304 29992 ft 376 kts 265°
2026-05-07 10:42 39.44702 0.38264 30000 ft 377 kts 265°
2026-05-07 10:43 39.45990 0.11001 29989 ft 380 kts 265°
2026-05-07 10:43 39.46551 -0.01408 30021 ft 381 kts 266°
2026-05-07 10:44 39.46863 -0.08442 29983 ft 384 kts 266°
2026-05-07 10:44 39.47104 -0.13904 29978 ft 386 kts 266°
2026-05-07 10:45 39.47420 -0.21157 29970 ft 386 kts 266°
2026-05-07 10:45 39.47723 -0.28090 29977 ft 387 kts 266°
2026-05-07 10:46 39.48022 -0.35060 29988 ft 388 kts 266°
2026-05-07 10:46 39.48311 -0.42079 29996 ft 389 kts 266°
2026-05-07 10:47 39.49193 -0.49051 29998 ft 403 kts 282°
2026-05-07 10:47 39.51806 -0.55625 30003 ft 414 kts 292°
2026-05-07 10:48 39.54686 -0.62094 30006 ft 415 kts 292°
2026-05-07 10:48 39.57548 -0.68576 29997 ft 415 kts 291°
2026-05-07 10:49 39.60402 -0.75078 30017 ft 414 kts 292°
2026-05-07 10:49 39.63268 -0.81613 30026 ft 415 kts 292°
2026-05-07 10:50 39.66106 -0.88087 30016 ft 415 kts 292°
2026-05-07 10:50 39.68964 -0.94615 30004 ft 416 kts 292°
2026-05-07 10:51 39.71821 -1.01148 30009 ft 416 kts 292°
2026-05-07 10:51 39.74670 -1.07705 30009 ft 416 kts 292°
2026-05-07 10:52 39.77512 -1.14260 30010 ft 417 kts 292°
2026-05-07 10:52 39.80383 -1.20819 30039 ft 417 kts 293°
2026-05-07 10:53 39.83253 -1.27388 30025 ft 416 kts 293°
2026-05-07 10:53 39.86099 -1.33973 30023 ft 417 kts 292°
2026-05-07 10:54 39.88959 -1.40622 30006 ft 429 kts 292°
2026-05-07 10:54 39.91873 -1.47394 29595 ft 420 kts 293°
2026-05-07 10:55 39.93295 -1.50678 28690 ft 413 kts 293°
2026-05-07 10:55 39.94690 -1.53914 27791 ft 407 kts 293°
2026-05-07 10:55 39.96057 -1.57095 27218 ft 395 kts 294°
2026-05-07 10:55 39.97379 -1.60166 26842 ft 380 kts 294°
2026-05-07 10:56 39.98653 -1.63124 26463 ft 366 kts 294°
2026-05-07 10:56 39.99875 -1.65971 26074 ft 354 kts 294°
2026-05-07 10:56 40.01066 -1.68762 25695 ft 349 kts 294°
2026-05-07 10:56 40.02240 -1.71528 25313 ft 349 kts 294°
2026-05-07 10:57 40.03417 -1.74301 24925 ft 349 kts 294°
2026-05-07 10:57 40.04579 -1.77040 24542 ft 350 kts 295°
2026-05-07 10:57 40.05762 -1.79827 24144 ft 352 kts 295°
2026-05-07 10:57 40.06967 -1.82660 23730 ft 353 kts 295°
2026-05-07 10:58 40.08142 -1.85428 23280 ft 352 kts 295°
2026-05-07 10:58 40.09326 -1.88217 22861 ft 350 kts 296°
2026-05-07 10:58 40.10503 -1.90991 22458 ft 348 kts 296°
2026-05-07 10:58 40.11674 -1.93750 22047 ft 346 kts 295°
2026-05-07 10:59 40.12838 -1.96495 21632 ft 344 kts 295°
2026-05-07 10:59 40.14011 -1.99266 21228 ft 343 kts 295°
2026-05-07 10:59 40.15158 -2.01983 20824 ft 341 kts 295°
2026-05-07 10:59 40.16310 -2.04714 20462 ft 345 kts 295°
2026-05-07 11:00 40.17454 -2.07423 20087 ft 345 kts 295°
2026-05-07 11:00 40.18618 -2.10171 19720 ft 344 kts 295°
2026-05-07 11:00 40.19774 -2.12905 19333 ft 343 kts 296°
2026-05-07 11:00 40.20929 -2.15632 18950 ft 341 kts 296°
2026-05-07 11:01 40.22074 -2.18343 18577 ft 340 kts 296°
2026-05-07 11:01 40.23215 -2.21048 18190 ft 339 kts 296°
2026-05-07 11:01 40.24351 -2.23743 17794 ft 337 kts 296°
2026-05-07 11:01 40.25410 -2.26452 17427 ft 331 kts 289°
2026-05-07 11:02 40.26049 -2.29314 17072 ft 325 kts 276°
2026-05-07 11:02 40.26225 -2.32230 16710 ft 319 kts 266°
2026-05-07 11:02 40.26197 -2.35132 16360 ft 318 kts 266°
2026-05-07 11:02 40.26179 -2.38019 16010 ft 316 kts 266°
2026-05-07 11:03 40.26167 -2.40892 15665 ft 315 kts 267°
2026-05-07 11:03 40.26154 -2.43749 15322 ft 313 kts 266°
2026-05-07 11:03 40.26139 -2.46592 14977 ft 312 kts 267°
2026-05-07 11:03 40.26123 -2.49422 14635 ft 310 kts 266°
2026-05-07 11:04 40.26105 -2.52204 14306 ft 308 kts 267°
2026-05-07 11:04 40.26089 -2.54980 14172 ft 300 kts 267°
2026-05-07 11:04 40.26075 -2.57666 14046 ft 289 kts 267°
2026-05-07 11:04 40.26061 -2.60224 13906 ft 276 kts 266°
2026-05-07 11:05 40.26049 -2.62708 13731 ft 271 kts 266°
2026-05-07 11:05 40.26042 -2.65167 13425 ft 270 kts 266°
2026-05-07 11:05 40.26035 -2.67610 13177 ft 266 kts 266°
2026-05-07 11:05 40.26029 -2.70041 12883 ft 265 kts 266°
2026-05-07 11:06 40.26024 -2.72448 12614 ft 264 kts 266°
2026-05-07 11:06 40.26016 -2.74842 12356 ft 261 kts 266°
2026-05-07 11:06 40.26004 -2.77213 12097 ft 260 kts 267°
2026-05-07 11:06 40.25995 -2.79574 11840 ft 259 kts 266°
2026-05-07 11:07 40.25988 -2.81930 11583 ft 258 kts 265°
2026-05-07 11:07 40.25978 -2.84276 11324 ft 257 kts 267°
2026-05-07 11:07 40.25969 -2.86620 11072 ft 256 kts 266°
2026-05-07 11:07 40.25959 -2.88956 10814 ft 256 kts 266°
2026-05-07 11:08 40.25947 -2.91287 10557 ft 255 kts 266°
2026-05-07 11:08 40.25933 -2.93602 10306 ft 254 kts 266°
2026-05-07 11:08 40.25920 -2.95907 10055 ft 253 kts 266°
2026-05-07 11:08 40.25907 -2.98205 9801 ft 252 kts 266°
2026-05-07 11:09 40.25894 -3.00504 9537 ft 251 kts 266°
2026-05-07 11:09 40.25883 -3.02787 9282 ft 251 kts 266°
2026-05-07 11:09 40.25871 -3.05069 9034 ft 250 kts 265°
2026-05-07 11:09 40.25858 -3.07341 8776 ft 248 kts 266°
2026-05-07 11:10 40.25845 -3.09570 8539 ft 248 kts 266°
2026-05-07 11:10 40.25829 -3.11822 8293 ft 247 kts 265°
2026-05-07 11:10 40.25877 -3.14068 8046 ft 247 kts 275°
2026-05-07 11:10 40.26174 -3.16292 7801 ft 248 kts 276°
2026-05-07 11:11 40.26472 -3.18511 7556 ft 248 kts 276°
2026-05-07 11:11 40.26767 -3.20733 7307 ft 247 kts 278°
2026-05-07 11:11 40.27058 -3.22946 7062 ft 246 kts 277°
2026-05-07 11:11 40.27347 -3.25150 6811 ft 245 kts 276°
2026-05-07 11:12 40.27636 -3.27346 6573 ft 246 kts 276°
2026-05-07 11:12 40.27924 -3.29548 6325 ft 244 kts 278°
2026-05-07 11:12 40.28278 -3.31723 6068 ft 246 kts 286°
2026-05-07 11:12 40.29069 -3.33728 5828 ft 250 kts 304°
2026-05-07 11:13 40.30178 -3.35453 5689 ft 243 kts 309°
2026-05-07 11:13 40.31269 -3.37095 5593 ft 235 kts 312°
2026-05-07 11:13 40.32452 -3.38527 5497 ft 228 kts 319°
2026-05-07 11:13 40.33168 -3.39275 5365 ft 227 kts 320°
2026-05-07 11:17 40.34033 -3.40118 5173 ft 228 kts 321°
2026-05-07 11:17 40.35287 -3.41393 4895 ft 228 kts 321°
2026-05-07 11:17 40.36513 -3.42640 4601 ft 216 kts 321°
2026-05-07 11:18 40.37665 -3.43806 4316 ft 202 kts 323°
2026-05-07 11:18 40.38740 -3.44894 4054 ft 189 kts 323°
2026-05-07 11:18 40.39740 -3.45906 3812 ft 176 kts 324°
2026-05-07 11:18 40.40661 -3.46838 3582 ft 162 kts 325°
2026-05-07 11:19 40.41539 -3.47725 3385 ft 158 kts 324°
2026-05-07 11:19 40.42413 -3.48609 3153 ft 158 kts 324°
2026-05-07 11:19 40.43251 -3.49459 2939 ft 149 kts 324°
2026-05-07 11:19 40.44068 -3.50286 2741 ft 148 kts 322°
2026-05-07 11:20 40.44873 -3.51122 2536 ft 147 kts 322°
2026-05-07 11:20 40.45684 -3.51947 2367 ft 148 kts 322°
2026-05-07 11:20 40.46498 -3.52751 2160 ft 145 kts 323°
2026-05-07 11:20 40.47295 -3.53561 1980 ft 144 kts 322°
2026-05-07 11:21 40.48048 -3.54321 1932 ft 121 kts 322°
2026-05-07 11:21 40.48592 -3.54877 1945 ft 75 kts 322°
2026-05-07 11:21 40.48796 -3.55085 1951 ft 49 kts 322°
2026-05-07 11:21 40.49038 -3.55328 1954 ft 38 kts 323°
2026-05-07 11:22 40.49192 -3.55543 1958 ft 28 kts 300°
2026-05-07 11:22 40.49257 -3.55740 1966 ft 19 kts 293°
2026-05-07 11:22 40.49296 -3.55899 1960 ft 18 kts 271°
2026-05-07 11:22 40.49299 -3.56076 1958 ft 20 kts 269°
2026-05-07 11:23 40.49317 -3.56235 1966 ft 14 kts 314°
2026-05-07 11:23 40.49416 -3.56247 1962 ft 16 kts
2026-05-07 11:23 40.49527 -3.56253 1961 ft 16 kts 340°
2026-05-07 11:23 40.49553 -3.56374 1965 ft 15 kts 270°
2026-05-07 11:24 40.49598 -3.56482 1968 ft 14 kts 301°
2026-05-07 11:24 40.49618 -3.56589 1971 ft 8 kts 270°
2026-05-07 11:24 40.49619 -3.56644 1971 ft 4 kts 270°
2026-05-07 11:24 40.49619 -3.56657 1974 ft 0 kts 269°